User: anonymous   Login
Location: ????????
(60.5616°N, 46.8254°E)
Time: 21:17:20
(UTC+00:00)
Language:

Meteor 2-11 Rocket - Orbit

View from above orbital plane
View from above orbital plane
View from above satellite
View from above satellite

Ground track
Ground track

The orbit data is extracted from the following two-line orbital elements,

1 15100U 84072B   20158.56083987 +.00000024 +00000-0 +84625-5 0  9996
2 15100 082.5299 358.6198 0012003 173.2329 186.8996 13.84443287814865
Epoch (UTC): 06 June 2020 13:27:36
Eccentricity: 0.0012003
inclination: 82.5299°
perigee height: 939 km
apogee height: 957 km
right ascension of ascending node: 358.6198°
argument of perigee: 173.2329°
revolutions per day: 13.84443287
mean anomaly at epoch: 186.8996°
orbit number at epoch: 81486

The dashed part of the orbit path shows where the satellite is in the earth's shadow,  

DLR